Regional Weather Roundup
Issued by NWS

Home | Current Version | Previous Version | Text Only | Print | Product List | Glossary On
Versions: 1 2 3 4 5 6 7 8 9 10 11 12 13 14 15 16 17 18 19 20 21 22 23 24 25 26 27 28 29 30 31 32 33 34 35 36 37 38 39 40 41 42 43 44 45 46 47 48
000
ASUS43 KMPX 130410
RWRMN
WEATHER ROUNDUP FOR MINNESOTA
NATIONAL WEATHER SERVICE TWIN CITIES/CHANHASSEN MN
1100 PM CDT WED AUG 12 2020


NOTE: "FAIR" INDICATES FEW OR NO CLOUDS BELOW 12,000 FEET WITH NO
SIGNIFICANT WEATHER AND/OR OBSTRUCTIONS TO VISIBILITY. N/A MEANS
CURRENT SKY AND/OR WEATHER CONDITIONS ARE NOT AVAILABLE.

MNZ060>063-068>070-130500-
   Twin Cities Metro

CITY           SKY/WX    TMP DP  RH WIND       PRES   REMARKS
TWIN CITIES    CLOUDY    68  64  87 E7        30.01S
ST PAUL        CLOUDY    68  63  84 SE7       30.02S
CRYSTAL        CLOUDY    67  62  84 E6        30.00S
BLAINE         MOCLDY    66  64  94 E5        30.02S
LAKEVILLE      MOCLDY    68  66  94 CALM      30.02R
EDEN PRAIRIE   CLOUDY    68  63  84 E7        29.99S
SOUTH ST PAUL  CLOUDY    68  64  88 E3        30.02R
LAKE ELMO      FAIR      63  61  94 E5        30.04S
$$
MNZ001>005-007-008-013>017-022>024-027-028-130500-
   Northwest Minnesota

CITY           SKY/WX    TMP DP  RH WIND       PRES   REMARKS
BEMIDJI        PTCLDY    63  61  92 SE13      30.02S
HALLOCK        CLEAR     66  64  94 SE6       29.95R
ROSEAU         CLEAR     68 N/A N/A SE7       29.97S
WARROAD        CLEAR     68  64  88 S9        29.99S
THIEF RVR FALL CLEAR     66  61  84 SE10      29.97F
CROOKSTON      CLEAR     64  63  94 SE7       29.94F
FOSSTON        CLEAR     63  57  82 SE10      29.98S
DETROIT LAKES    N/A     64  59  82 SE14      29.98F
MOORHEAD       PTCLDY    70  59  68 E8        29.92F
PARK RAPIDS    CLOUDY    65  59  81 SE13      30.02R
MAHNOMEN       FAIR      65  61  85 SE10      29.97S
$$
MNZ006-009>011-018-025>026-130500-
   North Central Minnesota

CITY           SKY/WX    TMP DP  RH WIND       PRES   REMARKS
BAUDETTE       CLEAR     66  62  87 SE7       30.02S
FLAG ISLAND      N/A     73  64  73 S9        29.98S
INTL FALLS     CLEAR     64  59  83 SE3       30.04S
WASKISH          N/A     63  59  88 E7        30.01F
BIG FORK       CLEAR     63  57  82 SE5       30.11R
GRAND RAPIDS   CLEAR     59  56  89 SE6       30.09S
CRANE LAKE     CLEAR     57  57 100 CALM      30.09R
ORR            CLEAR     63  57  82 SE3       30.06R
COOK           CLEAR     63  57  82 CALM      30.08S
WALKER         CLOUDY    64  61  88 SE6       30.03S
$$
MNZ012-019>021-037-130500-
   Northeast Minnesota

CITY           SKY/WX    TMP DP  RH WIND       PRES   REMARKS
DULUTH         PTCLDY    62  56  80 SE7       30.09S
ELY            PTCLDY    63  57  82 SE8       30.10S
HIBBING        CLEAR     54  52  93 CALM      30.08F
EVELETH        CLEAR     57  56  94 CALM      30.10S
DULUTH HARBOR  CLOUDY    64  59  82 CALM      30.08F
TWO HARBORS    PTCLDY    57  52  82 CALM      30.09S
SILVER BAY       N/A     57  55  94 CALM      30.10R
GRAND MARAIS     N/A     61  56  83 CALM      30.08F
G MARAIS ARPRT PTCLDY    57  54  88 CALM      30.13S
$$
MNZ029>031-032-039>041-046>048-054>057-064-130500-
   West Central Minnesota

CITY           SKY/WX    TMP DP  RH WIND       PRES   REMARKS
FERGUS FALLS   PTCLDY    70  61  73 SE12      29.94S
WHEATON        CLEAR     66  61  82 E7        29.93R
MORRIS         CLEAR     66  66 100 SE9       29.94S
ALEXANDRIA     MOCLDY    63  62  97 E14       29.99R
ELBOW LAKE     FAIR      65  63  92 SE14      29.95R
WADENA         CLOUDY    63  63 100 SE10      30.00R
GLENWOOD       CLEAR     63  63 100 E13G18    29.98S
APPLETON       CLEAR     68  63  83 SE13      29.92S
BENSON         CLEAR     66  63  88 SE9       29.94F
ORTONVILLE     CLEAR     66  64  94 SE8       29.91S
MADISON        PTCLDY    72  68  88 E8        29.92S
WILLMAR        FAIR      68  63  83 E10       29.99S
$$
MNZ033>034-036-042>043-049>051-058-059-130500-
   Central Minnesota

CITY           SKY/WX    TMP DP  RH WIND       PRES   REMARKS
ST CLOUD       CLOUDY    63  60  90 E9        30.00F
SAUK CENTRE    CLOUDY    62  61  97 E6        29.99S
PAYNESVILLE    MOCLDY    64  63  96 E9        29.99S
AITKIN         CLEAR     57  55  94 E5        30.04S
PINE RIVER     CLOUDY    61  57  88 SE9       30.06S
BRAINERD       CLOUDY    66  60  81 SE5       30.03S
STAPLES        CLOUDY    63  59  88 SE6       30.01S
LONG PRAIRIE   CLOUDY    61  59  94 E7        30.01R
LITTLE FALLS   CLOUDY   N/A N/A N/A E6        30.01F
CAMP RIPLEY    CLOUDY    62  60  93 E6        30.02F
LITCHFIELD     CLOUDY    68  64  88 E12       29.99S
BUFFALO        CLOUDY    65  61  87 MISG      30.01S
MAPLE LAKE       N/A     66  64  93 E7        30.01F
HUTCHINSON     CLOUDY    67  65  94 E9        30.00S
$$
MNZ037-044-045-052-053-130500-
   East Central Minnesota

CITY           SKY/WX    TMP DP  RH WIND       PRES   REMARKS
PRINCETON      CLOUDY    63  61  94 E6        30.02S
MORA           LGT RAIN  59  57  94 CALM      30.06S
CAMBRIDGE      CLOUDY    63  54  72 E5        30.03S
RUSH CITY      CLOUDY    59  57  92 E3        30.04F
MOOSE LAKE     CLOUDY    63  57  82 CALM      30.05F
HINCKLEY       CLOUDY    61  61 100 E7        30.06F
CLOQUET        CLOUDY    61  55  82 E3        30.08F
MCGREGOR       CLEAR     59  57  94 E5        30.07S
$$
MNZ071>073-080-081-089-090-097-098-130500-
   Southwest Minnesota

CITY           SKY/WX    TMP DP  RH WIND       PRES   REMARKS
MONTEVIDEO     CLEAR     66  63  88 SE9       29.94S
GRANITE FALLS  CLEAR     70  68  92 E5        29.95S
CANBY          CLEAR     75  72  92 E6        29.93S
MARSHALL         N/A     75  73  93 MISG        N/A
REDWOOD FALLS  MOCLDY    73  68  84 E7        29.94S
OLIVIA         CLEAR     64  63  94 E6        29.96S
PIPESTONE        N/A     75  70  83 S7        29.96S
WINDOM         CLEAR     73  70  88 S7        29.96F
WORTHINGTON    CLEAR     73  71  93 S10       29.98S
JACKSON        CLEAR     73  70  88 S7        29.99S
TRACY          CLEAR     73  68  83 CALM      29.95S
SLAYTON        CLEAR     71  65  81 S5        29.98R
$$
MNZ065>067-074>077-082>085-091>093-130500-
   South Central Minnesota

CITY           SKY/WX    TMP DP  RH WIND       PRES   REMARKS
MANKATO        CLOUDY    73  70  90 SE10      30.00R
NEW ULM        MOCLDY    73  70  88 SE7       29.97S
ST JAMES         N/A     72  72 100 E3        29.97R
FAIRMONT       CLEAR     73  71  93 S9        29.98R
GLENCOE        CLOUDY    65  64  93 E8        29.99S
FARIBAULT      CLOUDY    73  64  73 SE5       30.02R
OWATONNA       PTCLDY    72  64  78 SE9       30.01S
ALBERT LEA     MOCLDY    72  66  83 SE9       30.02R
$$
MNZ078>079-086>088-094>096-130500-
   Southeast Minnesota

CITY           SKY/WX    TMP DP  RH WIND       PRES   REMARKS
ROCHESTER      CLEAR     67  61  81 SE8       30.05R
RED WING       PTCLDY    70  63  78 E3        30.01S
STANTON        CLOUDY    69  66  89 CALM      30.01R
DODGE CENTER   CLEAR     66  61  82 SE8       30.04S
WINONA         CLEAR     68  63  83 S3        30.04S
AUSTIN         CLEAR     70  66  88 SE3       30.04R
PRESTON        CLEAR     67  61  80 SE6       30.06S
$$
ABBREVIATIONS USED IN REMARKS
   TC - TEMPERATURES IN CELSIUS
  WCI - WIND CHILL INDEX
   HX - HEAT INDEX
  VSB - VISIBILITY
$$




USA.gov is the U.S. government's official web portal to all federal, state and local government web resources and services.